When you browse on this site, cookies collect data to enhance your experience and personalize the content and advertising you see.
Visit our Privacy Policy to learn more. By continuing to use the site, you agree to this use of cookies and data.
  • en Suisse
  • Liste des pays
  • À 7 jours
  • Température de l'eau
  • Carte satellitaire
  • Carte météo
  • Widgets météo
  • user-avatar
    Se connecter

    Météo par heure à Tolukovychi

    Ce jour, 19 Avril, Vendredi

    Heure Température Précipitation Vent Pression Humidité
    00:00 +8°C° 0 mm 2 m/s 749 mmHg 72%
    01:00 +8°C° 0 mm 2 m/s 749 mmHg 73%
    02:00 +7°C° 0 mm 2 m/s 749 mmHg 75%
    03:00 +7°C° 0 mm 2 m/s 749 mmHg 78%
    04:00 +6°C° 0 mm 2 m/s 749 mmHg 80%
    05:00 +6°C° 0 mm 2 m/s 749 mmHg 83%
    06:00 +7°C° 0 mm 2 m/s 749 mmHg 79%
    07:00 +8°C° 0 mm 3 m/s 749 mmHg 75%
    08:00 +10°C° 0 mm 3 m/s 749 mmHg 71%
    09:00 +11°C° 0 mm 4 m/s 749 mmHg 63%
    10:00 +13°C° 0 mm 4 m/s 750 mmHg 55%
    11:00 +14°C° 0 mm 5 m/s 750 mmHg 48%
    12:00 +14°C° 0 mm 5 m/s 750 mmHg 46%
    13:00 +15°C° 0 mm 6 m/s 750 mmHg 44%
    14:00 +15°C° 0 mm 6 m/s 750 mmHg 41%
    15:00 +15°C° 0 mm 5 m/s 750 mmHg 42%
    16:00 +14°C° 0 mm 5 m/s 749 mmHg 43%
    17:00 +14°C° 0 mm 5 m/s 749 mmHg 44%
    18:00 +12°C° 0 mm 4 m/s 749 mmHg 49%
    19:00 +11°C° 0 mm 3 m/s 750 mmHg 55%
    20:00 +9°C° 0 mm 2 m/s 750 mmHg 60%
    21:00 +8°C° 0 mm 2 m/s 750 mmHg 61%
    22:00 +8°C° 0 mm 1 m/s 750 mmHg 62%
    23:00 +8°C° 0 mm 1 m/s 750 mmHg 63%

    Demain, 20 Avril, Samedi

    Heure Température Précipitation Vent Pression Humidité
    00:00 +7°C° 0 mm 1 m/s 750 mmHg 64%
    01:00 +7°C° 0 mm 1 m/s 750 mmHg 65%
    02:00 +6°C° 0 mm 1 m/s 750 mmHg 66%
    03:00 +6°C° 0 mm 1 m/s 750 mmHg 67%
    04:00 +6°C° 0 mm 1 m/s 750 mmHg 68%
    05:00 +5°C° 0 mm 1 m/s 750 mmHg 69%
    06:00 +7°C° 0 mm 1 m/s 750 mmHg 66%
    07:00 +8°C° 0 mm 1 m/s 750 mmHg 63%
    08:00 +10°C° 0 mm 1 m/s 750 mmHg 60%
    09:00 +11°C° 0 mm 1 m/s 749 mmHg 56%
    10:00 +13°C° 0 mm 2 m/s 749 mmHg 51%
    11:00 +15°C° 0 mm 2 m/s 749 mmHg 47%
    12:00 +15°C° 0 mm 2 m/s 748 mmHg 45%
    13:00 +16°C° 0 mm 2 m/s 748 mmHg 44%
    14:00 +16°C° 0 mm 2 m/s 747 mmHg 43%
    15:00 +16°C° 0 mm 2 m/s 747 mmHg 44%
    16:00 +16°C° 0 mm 2 m/s 747 mmHg 45%
    17:00 +16°C° 0 mm 1 m/s 746 mmHg 46%
    18:00 +15°C° 0 mm 1 m/s 746 mmHg 50%
    19:00 +13°C° 0 mm 1 m/s 746 mmHg 54%
    20:00 +12°C° 0 mm 1 m/s 746 mmHg 58%
    21:00 +11°C° 0 mm 1 m/s 746 mmHg 59%
    22:00 +11°C° 0 mm 1 m/s 746 mmHg 61%
    23:00 +10°C° 0 mm 1 m/s 745 mmHg 62%

    Après-demain, 21 Avril, Dimanche

    Heure Température Précipitation Vent Pression Humidité
    00:00 +10°C° 0 mm 1 m/s 745 mmHg 64%
    01:00 +10°C° 0 mm 1 m/s 745 mmHg 66%
    02:00 +10°C° 0 mm 1 m/s 745 mmHg 68%
    03:00 +9°C° 0 mm 1 m/s 745 mmHg 70%
    04:00 +9°C° 0 mm 1 m/s 744 mmHg 72%
    05:00 +8°C° 0 mm 1 m/s 744 mmHg 75%
    06:00 +8°C° 0 mm 2 m/s 744 mmHg 72%
    07:00 +9°C° 0 mm 2 m/s 744 mmHg 70%
    08:00 +10°C° 0 mm 2 m/s 744 mmHg 67%
    09:00 +12°C° 0.1 mm 2 m/s 744 mmHg 63%
    10:00 +14°C° 0.1 mm 2 m/s 744 mmHg 59%
    11:00 +14°C° 0.1 mm 3 m/s 744 mmHg 54%
    12:00 +14°C° 0.4 mm 3 m/s 743 mmHg 55%
    13:00 +14°C° 0.4 mm 3 m/s 743 mmHg 56%
    14:00 +14°C° 0.4 mm 3 m/s 743 mmHg 57%
    15:00 +14°C° 0.8 mm 3 m/s 742 mmHg 60%
    16:00 +15°C° 0.8 mm 2 m/s 742 mmHg 62%
    17:00 +15°C° 0.8 mm 2 m/s 742 mmHg 64%
    18:00 +13°C° 0.7 mm 2 m/s 742 mmHg 70%
    19:00 +12°C° 0.7 mm 1 m/s 742 mmHg 76%
    20:00 +10°C° 0.7 mm 0 m/s 742 mmHg 81%
    21:00 +10°C° 0 mm 1 m/s 742 mmHg 83%
    22:00 +9°C° 0 mm 1 m/s 742 mmHg 84%
    23:00 +9°C° 0 mm 1 m/s 742 mmHg 86%

    22 Avril, Lundi

    Heure Température Précipitation Vent Pression Humidité
    00:00 +8°C° 0 mm 1 m/s 742 mmHg 87%
    01:00 +8°C° 0 mm 1 m/s 742 mmHg 87%
    02:00 +7°C° 0 mm 1 m/s 742 mmHg 88%
    03:00 +7°C° 0 mm 1 m/s 742 mmHg 88%
    04:00 +7°C° 0 mm 1 m/s 742 mmHg 88%
    05:00 +7°C° 0 mm 1 m/s 742 mmHg 88%
    06:00 +8°C° 0 mm 1 m/s 742 mmHg 85%
    07:00 +10°C° 0 mm 1 m/s 742 mmHg 81%
    08:00 +10°C° 0 mm 2 m/s 743 mmHg 78%
    09:00 +12°C° 0.2 mm 2 m/s 743 mmHg 73%
    10:00 +13°C° 0.2 mm 3 m/s 743 mmHg 68%
    11:00 +14°C° 0.2 mm 4 m/s 743 mmHg 62%
    12:00 +15°C° 0.4 mm 4 m/s 743 mmHg 61%
    13:00 +15°C° 0.4 mm 4 m/s 742 mmHg 59%
    14:00 +16°C° 0.4 mm 5 m/s 742 mmHg 58%
    15:00 +15°C° 0.4 mm 5 m/s 742 mmHg 61%
    16:00 +15°C° 0.4 mm 5 m/s 742 mmHg 65%
    17:00 +14°C° 0.4 mm 5 m/s 742 mmHg 69%
    18:00 +13°C° 0.1 mm 5 m/s 742 mmHg 72%
    19:00 +12°C° 0.1 mm 5 m/s 742 mmHg 76%
    20:00 +10°C° 0.1 mm 5 m/s 742 mmHg 79%
    21:00 +9°C° 0 mm 5 m/s 743 mmHg 79%
    22:00 +9°C° 0 mm 5 m/s 743 mmHg 79%
    23:00 +8°C° 0 mm 5 m/s 743 mmHg 79%

    23 Avril, Mardi

    Heure Température Précipitation Vent Pression Humidité
    00:00 +8°C° 0 mm 5 m/s 743 mmHg 78%
    01:00 +7°C° 0 mm 5 m/s 743 mmHg 78%
    02:00 +7°C° 0 mm 5 m/s 743 mmHg 78%
    03:00 +6°C° 0 mm 5 m/s 743 mmHg 77%
    04:00 +6°C° 0 mm 5 m/s 743 mmHg 77%
    05:00 +6°C° 0 mm 5 m/s 743 mmHg 77%
    06:00 +7°C° 0 mm 6 m/s 743 mmHg 74%
    07:00 +8°C° 0 mm 7 m/s 743 mmHg 71%
    08:00 +8°C° 0 mm 7 m/s 743 mmHg 68%
    09:00 +10°C° 0 mm 7 m/s 743 mmHg 63%
    10:00 +11°C° 0 mm 8 m/s 743 mmHg 59%
    11:00 +13°C° 0 mm 8 m/s 743 mmHg 54%
    12:00 +13°C° 0 mm 8 m/s 743 mmHg 53%
    13:00 +15°C° 0 mm 9 m/s 743 mmHg 52%
    14:00 +16°C° 0 mm 9 m/s 743 mmHg 51%
    15:00 +15°C° 0 mm 8 m/s 742 mmHg 52%
    16:00 +15°C° 0 mm 8 m/s 742 mmHg 54%
    17:00 +13°C° 0 mm 8 m/s 742 mmHg 55%
    18:00 +12°C° 0 mm 7 m/s 742 mmHg 56%
    19:00 +11°C° 0 mm 7 m/s 742 mmHg 57%
    20:00 +10°C° 0 mm 6 m/s 742 mmHg 57%
    21:00 +9°C° 0 mm 6 m/s 742 mmHg 60%
    22:00 +8°C° 0 mm 5 m/s 742 mmHg 64%
    23:00 +8°C° 0 mm 5 m/s 742 mmHg 67%

    24 Avril, Mercredi

    Heure Température Précipitation Vent Pression Humidité
    00:00 +7°C° 0 mm 5 m/s 742 mmHg 69%
    01:00 +7°C° 0 mm 4 m/s 742 mmHg 71%
    02:00 +6°C° 0 mm 4 m/s 742 mmHg 74%
    03:00 +6°C° 0 mm 4 m/s 742 mmHg 74%
    04:00 +6°C° 0 mm 4 m/s 742 mmHg 74%
    05:00 +6°C° 0 mm 4 m/s 742 mmHg 74%
    06:00 +7°C° 0 mm 4 m/s 743 mmHg 73%
    07:00 +8°C° 0 mm 4 m/s 743 mmHg 72%
    08:00 +9°C° 0 mm 5 m/s 743 mmHg 71%
    09:00 +12°C° 0 mm 5 m/s 743 mmHg 67%
    10:00 +14°C° 0 mm 5 m/s 743 mmHg 63%
    11:00 +15°C° 0 mm 5 m/s 744 mmHg 59%
    12:00 +16°C° 0 mm 5 m/s 743 mmHg 57%
    13:00 +17°C° 0 mm 5 m/s 743 mmHg 55%
    14:00 +19°C° 0 mm 5 m/s 743 mmHg 53%
    15:00 +19°C° 0 mm 5 m/s 743 mmHg 55%
    16:00 +19°C° 0 mm 5 m/s 743 mmHg 57%
    17:00 +19°C° 0 mm 5 m/s 743 mmHg 59%
    18:00 +16°C° 0 mm 5 m/s 743 mmHg 63%
    19:00 +14°C° 0 mm 5 m/s 743 mmHg 67%
    20:00 +12°C° 0 mm 5 m/s 743 mmHg 72%
    21:00 +12°C° 0 mm 4 m/s 744 mmHg 74%
    22:00 +11°C° 0 mm 3 m/s 744 mmHg 76%
    23:00 +10°C° 0 mm 3 m/s 744 mmHg 79%
    Voir plus